Location: Blachownia
(50.7807°N, 18.9578°E)
Time: 01:42:07
(UTC+01:00)

ISS - Pass Details

Date: 27 January 2019
Orbit: 403 x 411 km, 51.6° (Epoch: 17 February)

Event Time Altitude Azimuth Distance (km) Brightness Sun altitude
Rises 18:22:24 0° 248° (WSW) 2,331 1.5 -18.1°
Reaches altitude 10° 18:24:29 10° 246° (WSW) 1,473 0.1 -18.5°
Maximum altitude 18:27:46 72° 163° (SSE) 435 -3.8 -19.0°
Enters shadow 18:27:57 70° 131° (SE) 442 -3.9 -19.0°
